EST,Max TemperatureF,Mean TemperatureF,Min TemperatureF,Max Dew PointF,MeanDew PointF,Min DewpointF,Max Humidity, Mean Humidity, Min Humidity, Max Sea Level PressureIn, Mean Sea Level PressureIn, Min Sea Level PressureIn, Max VisibilityMiles, Mean VisibilityMiles, Min VisibilityMiles, Max Wind SpeedMPH, Mean Wind SpeedMPH, Max Gust SpeedMPH,PrecipitationIn, CloudCover, Events, WindDirDegrees
2013-1-1,23,18,12,17,14,10,93,79,67,30.09,30.02,29.95,10,8,2,15,6,21,0.00,8,Snow,268
2013-1-2,23,18,13,22,17,8,93,84,69,30.08,30.03,29.94,10,7,2,9,4,,0.00,7,Snow,212
2013-1-3,28,24,20,24,20,15,91,82,71,30.04,29.95,29.87,10,9,2,18,8,26,0.00,8,Snow,237
2013-1-4,33,30,27,26,23,21,85,78,65,30.05,29.85,29.75,10,10,5,22,16,34,0.00,6,,255
2013-1-5,33,28,24,28,23,20,88,76,65,30.16,30.03,29.82,10,10,7,13,6,20,0.00,5,,181
2013-1-6,34,30,25,29,25,19,96,84,76,30.22,29.95,29.77,10,8,2,13,4,17,0.00,8,Snow,322
2013-1-7,38,30,23,29,23,19,85,71,57,30.22,30.00,29.83,10,10,10,25,9,41,0.00,3,,206
2013-1-8,40,34,27,31,29,26,96,83,62,30.11,30.03,29.90,10,8,3,17,8,26,0.00,0,,183
2013-1-9,38,34,31,32,27,24,82,71,62,30.37,29.95,29.75,10,10,7,26,12,34,0.00,7,,240
2013-1-10,39,32,25,29,25,22,87,75,57,30.51,30.38,30.14,10,10,10,13,6,20,0.00,0,,164
2013-1-11,43,38,33,43,36,28,100,97,77,30.12,29.77,29.64,10,5,0,13,7,17,0.00,8,Fog-Rain-Snow,140
2013-1-12,52,44,35,45,37,29,100,84,58,29.93,29.71,29.59,10,9,2,24,8,40,0.00,3,,204
2013-1-13,35,32,27,32,29,26,99,93,80,29.91,29.87,29.82,10,7,1,12,4,,0.00,8,Snow,291
2013-1-14,27,23,19,25,16,10,93,77,55,30.32,30.20,29.91,10,8,2,17,9,22,0.00,7,Snow,242
2013-1-15,26,18,11,19,14,7,82,72,62,30.33,30.22,30.01,10,9,5,15,9,23,0.00,5,Snow,217
2013-1-16,30,24,18,29,20,9,95,79,65,30.00,29.75,29.56,10,8,0,22,11,30,0.00,5,Snow,235
2013-1-17,18,14,10,10,5,0,82,69,57,30.25,30.16,29.96,10,7,1,20,9,30,0.00,8,Snow,287
2013-1-18,28,20,11,27,11,1,96,79,63,30.29,30.07,29.71,10,7,0,13,7,18,0.00,8,Snow,191
2013-1-19,35,30,25,34,27,22,100,93,82,29.80,29.61,29.34,10,5,1,25,4,41,0.00,8,Rain-Snow,238
2013-1-20,25,16,7,21,6,-1,88,73,63,30.09,29.92,29.39,10,7,0,29,18,36,0.00,7,Snow,289
2013-1-21,10,6,1,6,2,-4,89,80,61,30.03,29.93,29.86,10,3,0,18,7,25,0.00,8,Snow,260
2013-1-22,2,-2,-6,-2,-6,-11,86,80,75,30.18,30.11,29.98,10,5,1,14,7,21,0.00,7,Snow,301
2013-1-23,13,2,-8,8,3,-14,89,81,67,30.21,30.08,29.99,10,8,1,10,4,17,0.00,7,Snow,265
2013-1-24,7,-2,-12,3,-4,-17,88,79,69,30.60,30.49,30.23,10,10,7,13,5,,0.00,2,,16
2013-1-25,19,10,2,16,7,-1,94,83,74,30.43,30.11,29.95,10,6,1,12,5,16,0.00,7,Snow,156
2013-1-26,21,12,4,16,11,2,94,88,76,30.38,30.23,30.01,10,9,2,5,1,,0.00,4,Snow,308
2013-1-27,29,21,13,26,19,11,96,84,71,30.38,30.27,30.08,10,9,2,9,5,,0.00,7,Snow,156
2013-1-28,32,28,25,31,28,24,99,95,91,30.07,29.91,29.81,10,6,1,9,4,,0.00,8,Snow,90
2013-1-29,42,36,30,42,34,29,100,98,93,29.97,29.65,29.44,10,6,0,13,5,20,0.00,8,Fog-Rain-Snow,127
2013-1-30,34,26,18,35,30,15,100,98,86,29.44,29.26,29.09,10,5,0,16,8,22,0.00,8,Rain-Snow,342
2013-1-31,17,13,9,14,8,4,88,82,77,29.80,29.52,29.17,10,5,1,18,13,25,0.00,8,Snow,303